| time (UTC) | temp F | wind direction | speed knots | gust knots | rain 1hr in | rain 24hr in | rain mn in | humidity % | barometer mb |
| 20260906111902 | 68 | 23 | 2.6 | 3.5 | 0.00 | 0.00 | 0.00 | 88 | 1015.9 |
| 20260906110902 | 68 | 23 | 2.6 | 2.6 | 0.00 | 0.00 | 0.00 | 89 | 1015.5 |
| 20260906104901 | 69 | 23 | 1.7 | 2.6 | 0.00 | 0.00 | 0.00 | 89 | 1015.2 |
| 20260906103902 | 69 | 90 | 1.7 | 2.6 | 0.00 | 0.00 | 0.00 | 89 | 1015.2 |
| 20260906102901 | 70 | 0 | 2.6 | 2.6 | 0.00 | 0.00 | 0.00 | 89 | 1015.2 |
| 20260906101902 | 70 | 23 | 2.6 | 2.6 | 0.00 | 0.00 | 0.00 | 89 | 1015.2 |
| 20260906100901 | 70 | 248 | 1.7 | 1.7 | 0.00 | 0.00 | 0.00 | 89 | 1014.8 |
| 20260906094901 | 70 | 23 | 3.5 | 3.5 | 0.00 | 0.00 | 0.00 | 89 | 1014.8 |
| 20260906093901 | 70 | 0 | 0.0 | 1.7 | 0.00 | 0.00 | 0.00 | 89 | 1014.8 |
| 20260906092902 | 70 | 45 | 1.7 | 3.5 | 0.00 | 0.00 | 0.00 | 89 | 1014.8 |
| 20260906091901 | 70 | 0 | 4.3 | 4.3 | 0.00 | 0.00 | 0.00 | 89 | 1014.8 |
| 20260906090901 | 70 | 23 | 3.5 | 3.5 | 0.00 | 0.00 | 0.00 | 89 | 1014.8 |
| 20260906084902 | 70 | 113 | 2.6 | 3.5 | 0.00 | 0.00 | 0.00 | 89 | 1014.8 |
| 20260906083902 | 71 | 0 | 2.6 | 3.5 | 0.00 | 0.00 | 0.00 | 89 | 1014.8 |
| 20260906082901 | 71 | 23 | 2.6 | 3.5 | 0.00 | 0.00 | 0.00 | 89 | 1014.8 |
| 20260906081902 | 71 | 23 | 2.6 | 3.5 | 0.00 | 0.00 | 0.00 | 88 | 1014.8 |
| 20260906080901 | 71 | 23 | 2.6 | 2.6 | 0.00 | 0.00 | 0.00 | 88 | 1014.5 |
| 20260906074901 | 71 | 23 | 2.6 | 3.5 | 0.00 | 0.00 | 0.00 | 88 | 1014.5 |
| 20260906073901 | 71 | 0 | 3.5 | 3.5 | 0.00 | 0.00 | 0.00 | 88 | 1014.5 |
| 20260906072902 | 71 | 0 | 3.5 | 3.5 | 0.00 | 0.00 | 0.00 | 88 | 1014.5 |
| 20260906071901 | 71 | 23 | 4.3 | 4.3 | 0.00 | 0.00 | 0.00 | 88 | 1014.8 |
| 20260906070902 | 70 | 23 | 3.5 | 3.5 | 0.00 | 0.00 | 0.00 | 88 | 1014.5 |
| 20260906070101 | 70 | 23 | 2.6 | 4.3 | 0.00 | 0.00 | 0.00 | 88 | 1014.8 |
| 20260906064902 | 70 | 23 | 2.6 | 4.3 | 0.00 | 0.00 | 0.00 | 88 | 1014.8 |
| 20260906063902 | 70 | 23 | 3.5 | 4.3 | 0.00 | 0.00 | 0.00 | 88 | 1015.2 |
| 20260906062901 | 71 | 315 | 2.6 | 3.5 | 0.00 | 0.00 | 0.00 | 88 | 1015.2 |
| 20260906061901 | 71 | 315 | 3.5 | 3.5 | 0.00 | 0.00 | 0.00 | 88 | 1015.2 |
| 20260906060901 | 71 | 23 | 2.6 | 2.6 | 0.00 | 0.00 | 0.00 | 87 | 1014.8 |
| 20260906054901 | 71 | 338 | 2.6 | 3.5 | 0.00 | 0.00 | 0.00 | 87 | 1014.8 |
| 20260906053901 | 71 | 293 | 1.7 | 3.5 | 0.00 | 0.00 | 0.00 | 87 | 1014.5 |
| 20260906052902 | 70 | 0 | 3.5 | 3.5 | 0.00 | 0.00 | 0.00 | 87 | 1014.5 |
| 20260906051901 | 70 | 0 | 2.6 | 3.5 | 0.00 | 0.00 | 0.00 | 87 | 1014.5 |
| 20260906050901 | 70 | 338 | 1.7 | 1.7 | 0.00 | 0.00 | 0.00 | 87 | 1014.5 |
| 20260906044902 | 70 | 338 | 2.6 | 3.5 | 0.00 | 0.00 | 0.00 | 87 | 1014.5 |
| 20260906043901 | 71 | 23 | 3.5 | 3.5 | 0.00 | 0.00 | 0.00 | 87 | 1014.2 |
| 20260906042902 | 71 | 23 | 3.5 | 3.5 | 0.00 | 0.00 | 0.00 | 87 | 1014.2 |
| 20260906041902 | 71 | 23 | 1.7 | 3.5 | 0.00 | 0.00 | 0.00 | 86 | 1014.5 |
| 20260906040902 | 71 | 23 | 2.6 | 2.6 | 0.00 | 0.00 | 0.00 | 86 | 1014.5 |
| 20260906034902 | 72 | 0 | 1.7 | 5.2 | 0.00 | 0.00 | 0.00 | 85 | 1014.2 |
| 20260906033901 | 72 | 45 | 3.5 | 4.3 | 0.00 | 0.00 | 0.00 | 85 | 1014.2 |
| 20260906032901 | 72 | 45 | 2.6 | 3.5 | 0.00 | 0.00 | 0.00 | 84 | 1014.2 |
| 20260906031901 | 73 | 23 | 3.5 | 3.5 | 0.00 | 0.00 | 0.00 | 84 | 1014.2 |
| 20260906030902 | 73 | 315 | 5.2 | 5.2 | 0.00 | 0.00 | 0.00 | 84 | 1013.8 |
| 20260906024902 | 74 | 23 | 5.2 | 5.2 | 0.00 | 0.00 | 0.00 | 83 | 1013.8 |
| 20260906023901 | 74 | 45 | 5.2 | 6.1 | 0.00 | 0.00 | 0.00 | 83 | 1013.8 |
| 20260906022902 | 75 | 23 | 3.5 | 4.3 | 0.00 | 0.00 | 0.00 | 83 | 1013.8 |
| 20260906021902 | 75 | 0 | 4.3 | 4.3 | 0.00 | 0.00 | 0.00 | 83 | 1013.5 |
| 20260906020902 | 76 | 23 | 2.6 | 2.6 | 0.00 | 0.00 | 0.00 | 82 | 1013.5 |
| 20260906014901 | 77 | 23 | 2.6 | 3.5 | 0.00 | 0.00 | 0.00 | 81 | 1013.5 |
| 20260906013902 | 77 | 68 | 3.5 | 4.3 | 0.00 | 0.00 | 0.00 | 80 | 1013.5 |
| 20260906012902 | 78 | 23 | 3.5 | 5.2 | 0.00 | 0.00 | 0.00 | 80 | 1013.2 |
| 20260906011901 | 79 | 45 | 1.7 | 4.3 | 0.00 | 0.00 | 0.00 | 79 | 1012.8 |
| 20260906010902 | 79 | 113 | 3.5 | 3.5 | 0.00 | 0.00 | 0.00 | 78 | 1012.8 |
| 20260906004902 | 80 | 23 | 3.5 | 5.2 | 0.00 | 0.00 | 0.00 | 77 | 1012.5 |
| 20260906003901 | 81 | 23 | 3.5 | 4.3 | 0.00 | 0.00 | 0.00 | 76 | 1012.5 |
| 20260906002902 | 82 | 23 | 4.3 | 5.2 | 0.00 | 0.00 | 0.00 | 76 | 1012.5 |
| 20260906001902 | 83 | 0 | 4.3 | 4.3 | 0.00 | 0.00 | 0.00 | 76 | 1012.5 |
| 20260906000902 | 84 | 45 | 3.5 | 3.5 | 0.00 | 0.00 | 0.00 | 75 | 1012.1 |
| 20260905234901 | 86 | 0 | 5.2 | 6.1 | 0.00 | 0.00 | 0.00 | 73 | 1012.1 |
| 20260905233902 | 87 | 45 | 4.3 | 4.3 | 0.00 | 0.00 | 0.00 | 70 | 1012.1 |
| 20260905232901 | 88 | 338 | 3.5 | 3.5 | 0.00 | 0.00 | 0.00 | 69 | 1011.8 |
| 20260905231901 | 88 | 23 | 2.6 | 3.5 | 0.00 | 0.00 | 0.00 | 69 | 1011.8 |
| 20260905230902 | 89 | 23 | 2.6 | 2.6 | 0.00 | 0.00 | 0.00 | 68 | 1011.8 |
| 20260905224901 | 90 | 315 | 2.6 | 5.2 | 0.00 | 0.00 | 0.00 | 64 | 1011.8 |
| 20260905223901 | 90 | 23 | 4.3 | 5.2 | 0.00 | 0.00 | 0.00 | 64 | 1011.8 |
| 20260905222902 | 91 | 338 | 4.3 | 5.2 | 0.00 | 0.00 | 0.00 | 63 | 1011.5 |
| 20260905221902 | 92 | 23 | 3.5 | 5.2 | 0.00 | 0.00 | 0.00 | 63 | 1011.5 |
| 20260905220902 | 92 | 23 | 3.5 | 3.5 | 0.00 | 0.00 | 0.00 | 63 | 1011.5 |
| 20260905214902 | 92 | 0 | 3.5 | 6.1 | 0.00 | 0.00 | 0.00 | 63 | 1011.5 |
| 20260905213902 | 92 | 23 | 3.5 | 4.3 | 0.00 | 0.00 | 0.00 | 63 | 1011.5 |
| 20260905212901 | 93 | 0 | 5.2 | 5.2 | 0.00 | 0.00 | 0.00 | 62 | 1011.5 |
| 20260905211901 | 93 | 23 | 1.7 | 4.3 | 0.00 | 0.00 | 0.00 | 62 | 1011.5 |
| 20260905210902 | 93 | 338 | 2.6 | 2.6 | 0.00 | 0.00 | 0.00 | 61 | 1011.8 |
| 20260905204901 | 94 | 0 | 3.5 | 5.2 | 0.00 | 0.00 | 0.00 | 60 | 1011.8 |
| 20260905203902 | 95 | 293 | 3.5 | 3.5 | 0.00 | 0.00 | 0.00 | 58 | 1011.8 |
| 20260905202902 | 95 | 338 | 2.6 | 3.5 | 0.00 | 0.00 | 0.00 | 58 | 1011.8 |
| 20260905201901 | 94 | 293 | 3.5 | 5.2 | 0.00 | 0.00 | 0.00 | 57 | 1011.8 |
| 20260905200902 | 96 | 315 | 3.5 | 3.5 | 0.00 | 0.00 | 0.00 | 55 | 1011.8 |
| 20260905194902 | 96 | 293 | 2.6 | 4.3 | 0.00 | 0.00 | 0.00 | 54 | 1011.8 |
| 20260905193901 | 96 | 270 | 1.7 | 4.3 | 0.00 | 0.00 | 0.00 | 56 | 1012.1 |
| 20260905192902 | 93 | 293 | 3.5 | 4.3 | 0.00 | 0.00 | 0.00 | 59 | 1012.1 |
| 20260905191901 | 96 | 293 | 5.2 | 5.2 | 0.00 | 0.00 | 0.00 | 55 | 1012.1 |
| 20260905190901 | 96 | 293 | 4.3 | 4.3 | 0.00 | 0.00 | 0.00 | 54 | 1012.5 |
| 20260905184902 | 96 | 23 | 3.5 | 3.5 | 0.00 | 0.00 | 0.00 | 56 | 1012.5 |
| 20260905183901 | 93 | 315 | 2.6 | 3.5 | 0.00 | 0.00 | 0.00 | 61 | 1012.5 |
| 20260905182902 | 93 | 293 | 3.5 | 3.5 | 0.00 | 0.00 | 0.00 | 59 | 1012.8 |
| 20260905181901 | 95 | 293 | 3.5 | 4.3 | 0.00 | 0.00 | 0.00 | 57 | 1012.8 |
| 20260905180901 | 97 | 293 | 3.5 | 3.5 | 0.00 | 0.00 | 0.00 | 53 | 1012.8 |
| 20260905174902 | 97 | 315 | 3.5 | 3.5 | 0.00 | 0.00 | 0.00 | 53 | 1012.8 |
| 20260905173901 | 96 | 293 | 3.5 | 5.2 | 0.00 | 0.00 | 0.00 | 54 | 1012.8 |
| 20260905172902 | 96 | 315 | 3.5 | 4.3 | 0.00 | 0.00 | 0.00 | 54 | 1013.2 |
| 20260905171902 | 95 | 293 | 3.5 | 4.3 | 0.00 | 0.00 | 0.00 | 56 | 1013.2 |
| 20260905170901 | 96 | 270 | 3.5 | 3.5 | 0.00 | 0.00 | 0.00 | 55 | 1013.2 |
| 20260905170101 | 94 | 293 | 4.3 | 5.2 | 0.00 | 0.00 | 0.00 | 57 | 1013.2 |
| 20260905164902 | 95 | 270 | 1.7 | 2.6 | 0.00 | 0.00 | 0.00 | 60 | 1013.2 |
| 20260905163901 | 95 | 203 | 1.7 | 3.5 | 0.00 | 0.00 | 0.00 | 59 | 1013.2 |
| 20260905162902 | 94 | 293 | 3.5 | 3.5 | 0.00 | 0.00 | 0.00 | 59 | 1013.5 |
| 20260905161901 | 93 | 270 | 0.9 | 3.5 | 0.00 | 0.00 | 0.00 | 64 | 1013.2 |
| 20260905160902 | 94 | 225 | 1.7 | 1.7 | 0.00 | 0.00 | 0.00 | 61 | 1013.5 |
| 20260905154902 | 91 | 248 | 1.7 | 2.6 | 0.00 | 0.00 | 0.00 | 67 | 1013.5 |
| 20260905153902 | 91 | 270 | 1.7 | 2.6 | 0.00 | 0.00 | 0.00 | 66 | 1013.5 |
| 20260905152901 | 91 | 293 | 2.6 | 2.6 | 0.00 | 0.00 | 0.00 | 67 | 1013.2 |
| 20260905151902 | 90 | 270 | 1.7 | 2.6 | 0.00 | 0.00 | 0.00 | 69 | 1013.2 |
| 20260905150902 | 89 | 270 | 1.7 | 1.7 | 0.00 | 0.00 | 0.00 | 67 | 1013.2 |
| 20260905144902 | 87 | 225 | 2.6 | 2.6 | 0.00 | 0.00 | 0.00 | 72 | 1013.2 |
| 20260905143901 | 86 | 270 | 1.7 | 2.6 | 0.00 | 0.00 | 0.00 | 74 | 1013.2 |
| 20260905142901 | 85 | 293 | 3.5 | 3.5 | 0.00 | 0.00 | 0.00 | 75 | 1013.2 |
| 20260905141902 | 84 | 203 | 0.9 | 2.6 | 0.00 | 0.00 | 0.00 | 77 | 1013.2 |
| 20260905140901 | 83 | 248 | 1.7 | 1.7 | 0.00 | 0.00 | 0.00 | 77 | 1013.5 |
| 20260905134902 | 82 | 225 | 2.6 | 2.6 | 0.00 | 0.00 | 0.00 | 77 | 1013.2 |
| 20260905133901 | 81 | 203 | 1.7 | 2.6 | 0.00 | 0.00 | 0.00 | 80 | 1013.2 |
| 20260905132902 | 80 | 248 | 0.9 | 2.6 | 0.00 | 0.00 | 0.00 | 81 | 1013.2 |
| 20260905131901 | 79 | 180 | 2.6 | 2.6 | 0.00 | 0.00 | 0.00 | 81 | 1013.2 |
| 20260905130902 | 79 | 180 | 0.0 | 0.0 | 0.00 | 0.00 | 0.00 | 82 | 1013.5 |
| 20260905124901 | 78 | 203 | 0.0 | 1.7 | 0.00 | 0.00 | 0.00 | 83 | 1013.2 |
| 20260905123901 | 77 | 180 | 0.0 | 1.7 | 0.00 | 0.00 | 0.00 | 83 | 1013.2 |
| 20260905122902 | 77 | 180 | 1.7 | 1.7 | 0.00 | 0.00 | 0.00 | 83 | 1013.2 |
| 20260905121901 | 77 | 135 | 0.0 | 0.0 | 0.00 | 0.00 | 0.00 | 84 | 1013.2 |
| 20260905120902 | 77 | 180 | 0.0 | 0.0 | 0.00 | 0.00 | 0.00 | 85 | 1013.2 |
| 20260905114902 | 76 | 180 | 0.0 | 0.0 | 0.00 | 0.00 | 0.00 | 86 | 1012.8 |
| 20260905113901 | 76 | 180 | 0.0 | 0.0 | 0.00 | 0.00 | 0.00 | 86 | 1012.8 |
| 20260905112902 | 76 | 180 | 0.0 | 0.0 | 0.00 | 0.00 | 0.00 | 86 | 1012.8 |